• In Österreich
  • Länderverzeichnis
  • Für 7 Tage
  • Wassertemperatur
  • Satellitenkarten
  • Wetterkarte
  • News
  • Widgets
  • user-avatar
    Anmelden

    Stündliche Wetter Jewłach

    Heute, 21 Mai, Montag

    Zeit Temperatur Niederschläge Wind Luftdruck Luftfeuchtigkeit
    00:00 +24°C° 0 mm 2 m/S 761 mmHg 42%
    01:00 +24°C° 0 mm 2 m/S 760 mmHg 42%
    02:00 +23°C° 0 mm 2 m/S 760 mmHg 43%
    03:00 +23°C° 0 mm 2 m/S 760 mmHg 44%
    04:00 +23°C° 0 mm 2 m/S 760 mmHg 45%
    05:00 +23°C° 0 mm 2 m/S 760 mmHg 47%
    06:00 +24°C° 0 mm 2 m/S 760 mmHg 49%
    07:00 +25°C° 0 mm 2 m/S 760 mmHg 45%
    08:00 +27°C° 0 mm 2 m/S 760 mmHg 40%
    09:00 +28°C° 0 mm 2 m/S 760 mmHg 36%
    10:00 +29°C° 0 mm 2 m/S 760 mmHg 35%
    11:00 +30°C° 0 mm 1 m/S 760 mmHg 33%
    12:00 +31°C° 0 mm 1 m/S 760 mmHg 31%
    13:00 +31°C° 0 mm 1 m/S 759 mmHg 31%
    14:00 +31°C° 0 mm 1 m/S 759 mmHg 31%
    15:00 +32°C° 0 mm 1 m/S 759 mmHg 31%
    16:00 +31°C° 0 mm 1 m/S 759 mmHg 33%
    17:00 +31°C° 0 mm 1 m/S 759 mmHg 36%
    18:00 +30°C° 0 mm 1 m/S 759 mmHg 38%
    19:00 +29°C° 0 mm 2 m/S 760 mmHg 39%
    20:00 +28°C° 0 mm 2 m/S 760 mmHg 41%
    21:00 +26°C° 0 mm 2 m/S 760 mmHg 42%
    22:00 +26°C° 0 mm 2 m/S 760 mmHg 42%
    23:00 +25°C° 0 mm 2 m/S 761 mmHg 42%

    Morgen, 22 Mai, Dienstag

    Zeit Temperatur Niederschläge Wind Luftdruck Luftfeuchtigkeit
    00:00 +25°C° 0 mm 1 m/S 761 mmHg 42%
    01:00 +24°C° 0 mm 2 m/S 761 mmHg 43%
    02:00 +24°C° 0 mm 2 m/S 761 mmHg 43%
    03:00 +24°C° 0 mm 2 m/S 761 mmHg 44%
    04:00 +24°C° 0 mm 2 m/S 762 mmHg 45%
    05:00 +24°C° 0 mm 2 m/S 762 mmHg 47%
    06:00 +25°C° 0 mm 2 m/S 762 mmHg 48%
    07:00 +26°C° 0 mm 2 m/S 762 mmHg 43%
    08:00 +28°C° 0 mm 2 m/S 763 mmHg 37%
    09:00 +29°C° 0 mm 2 m/S 763 mmHg 31%
    10:00 +31°C° 0 mm 2 m/S 763 mmHg 28%
    11:00 +33°C° 0 mm 3 m/S 762 mmHg 25%
    12:00 +34°C° 0 mm 3 m/S 762 mmHg 22%
    13:00 +34°C° 0 mm 4 m/S 762 mmHg 21%
    14:00 +35°C° 0 mm 4 m/S 762 mmHg 20%
    15:00 +35°C° 0 mm 4 m/S 762 mmHg 20%
    16:00 +35°C° 0 mm 4 m/S 762 mmHg 22%
    17:00 +34°C° 0 mm 4 m/S 762 mmHg 24%
    18:00 +33°C° 0 mm 3 m/S 762 mmHg 27%
    19:00 +30°C° 0 mm 3 m/S 762 mmHg 29%
    20:00 +28°C° 0 mm 3 m/S 763 mmHg 30%
    21:00 +26°C° 0 mm 3 m/S 763 mmHg 32%
    22:00 +26°C° 0 mm 3 m/S 763 mmHg 33%
    23:00 +25°C° 0 mm 2 m/S 763 mmHg 33%

    übermorgen, 23 Mai, Mittwoch

    Zeit Temperatur Niederschläge Wind Luftdruck Luftfeuchtigkeit
    00:00 +24°C° 0 mm 2 m/S 763 mmHg 34%
    01:00 +24°C° 0 mm 2 m/S 763 mmHg 34%
    02:00 +24°C° 0 mm 1 m/S 763 mmHg 33%
    03:00 +23°C° 0 mm 1 m/S 764 mmHg 33%
    04:00 +24°C° 0 mm 1 m/S 764 mmHg 33%
    05:00 +24°C° 0 mm 1 m/S 764 mmHg 34%
    06:00 +25°C° 0 mm 1 m/S 764 mmHg 34%
    07:00 +27°C° 0 mm 2 m/S 764 mmHg 30%
    08:00 +29°C° 0 mm 2 m/S 764 mmHg 27%
    09:00 +30°C° 0 mm 2 m/S 764 mmHg 23%
    10:00 +32°C° 0 mm 2 m/S 763 mmHg 21%
    11:00 +34°C° 0 mm 2 m/S 763 mmHg 20%
    12:00 +35°C° 0 mm 3 m/S 763 mmHg 18%
    13:00 +36°C° 0 mm 3 m/S 762 mmHg 18%
    14:00 +36°C° 0 mm 4 m/S 762 mmHg 17%
    15:00 +36°C° 0 mm 5 m/S 761 mmHg 17%
    16:00 +35°C° 0 mm 5 m/S 761 mmHg 19%
    17:00 +34°C° 0 mm 4 m/S 761 mmHg 22%
    18:00 +33°C° 0 mm 4 m/S 761 mmHg 24%
    19:00 +30°C° 0 mm 4 m/S 761 mmHg 26%
    20:00 +28°C° 0 mm 3 m/S 762 mmHg 27%
    21:00 +26°C° 0 mm 3 m/S 762 mmHg 28%
    22:00 +26°C° 0 mm 3 m/S 762 mmHg 29%
    23:00 +25°C° 0 mm 3 m/S 762 mmHg 29%

    24 Mai, Donnerstag

    Zeit Temperatur Niederschläge Wind Luftdruck Luftfeuchtigkeit
    00:00 +24°C° 0 mm 2 m/S 762 mmHg 30%
    01:00 +24°C° 0 mm 2 m/S 762 mmHg 28%
    02:00 +23°C° 0 mm 2 m/S 761 mmHg 27%
    03:00 +23°C° 0 mm 2 m/S 761 mmHg 26%
    04:00 +23°C° 0 mm 2 m/S 761 mmHg 27%
    05:00 +24°C° 0 mm 2 m/S 761 mmHg 28%
    06:00 +24°C° 0 mm 2 m/S 761 mmHg 29%
    07:00 +26°C° 0 mm 2 m/S 761 mmHg 25%
    08:00 +28°C° 0 mm 2 m/S 761 mmHg 22%
    09:00 +30°C° 0 mm 2 m/S 760 mmHg 18%
    10:00 +31°C° 0 mm 2 m/S 760 mmHg 17%
    11:00 +32°C° 0 mm 2 m/S 759 mmHg 16%
    12:00 +34°C° 0 mm 2 m/S 759 mmHg 15%
    13:00 +35°C° 0 mm 2 m/S 759 mmHg 15%
    14:00 +35°C° 0 mm 3 m/S 758 mmHg 15%
    15:00 +36°C° 0 mm 3 m/S 758 mmHg 15%
    16:00 +34°C° 0 mm 3 m/S 758 mmHg 18%
    17:00 +33°C° 0 mm 3 m/S 757 mmHg 21%
    18:00 +31°C° 0 mm 3 m/S 757 mmHg 24%
    19:00 +30°C° 0 mm 3 m/S 757 mmHg 25%
    20:00 +28°C° 0 mm 2 m/S 758 mmHg 26%
    21:00 +26°C° 0 mm 2 m/S 758 mmHg 27%
    22:00 +25°C° 0 mm 2 m/S 758 mmHg 28%
    23:00 +25°C° 0 mm 2 m/S 758 mmHg 29%

    25 Mai, Freitag

    Zeit Temperatur Niederschläge Wind Luftdruck Luftfeuchtigkeit
    00:00 +24°C° 0 mm 2 m/S 757 mmHg 31%
    01:00 +24°C° 0 mm 2 m/S 757 mmHg 31%
    02:00 +23°C° 0 mm 2 m/S 757 mmHg 31%
    03:00 +23°C° 0 mm 2 m/S 757 mmHg 32%
    04:00 +23°C° 0 mm 2 m/S 757 mmHg 33%
    05:00 +24°C° 0 mm 2 m/S 757 mmHg 34%
    06:00 +24°C° 0 mm 2 m/S 757 mmHg 35%
    07:00 +26°C° 0 mm 2 m/S 757 mmHg 32%
    08:00 +28°C° 0 mm 2 m/S 756 mmHg 28%
    09:00 +29°C° 0 mm 2 m/S 756 mmHg 24%
    10:00 +30°C° 0 mm 2 m/S 756 mmHg 23%
    11:00 +31°C° 0 mm 2 m/S 755 mmHg 21%
    12:00 +32°C° 0 mm 2 m/S 755 mmHg 20%
    13:00 +34°C° 0 mm 2 m/S 755 mmHg 20%
    14:00 +33°C° 0 mm 1 m/S 754 mmHg 20%
    15:00 +34°C° 0 mm 1 m/S 754 mmHg 19%
    16:00 +33°C° 0 mm 1 m/S 754 mmHg 22%
    17:00 +33°C° 0 mm 1 m/S 754 mmHg 25%
    18:00 +32°C° 0 mm 1 m/S 754 mmHg 28%
    19:00 +31°C° 0 mm 1 m/S 755 mmHg 29%
    20:00 +29°C° 0 mm 2 m/S 755 mmHg 31%
    21:00 +27°C° 0 mm 2 m/S 756 mmHg 33%
    22:00 +26°C° 0 mm 2 m/S 756 mmHg 35%
    23:00 +26°C° 0 mm 2 m/S 756 mmHg 36%

    26 Mai, Samstag

    Zeit Temperatur Niederschläge Wind Luftdruck Luftfeuchtigkeit
    00:00 +25°C° 0 mm 2 m/S 756 mmHg 38%
    01:00 +25°C° 0 mm 2 m/S 756 mmHg 38%
    02:00 +24°C° 0 mm 2 m/S 756 mmHg 39%
    03:00 +24°C° 0 mm 2 m/S 756 mmHg 39%
    04:00 +25°C° 0 mm 2 m/S 756 mmHg 39%
    05:00 +25°C° 0 mm 2 m/S 756 mmHg 39%
    06:00 +26°C° 0 mm 2 m/S 756 mmHg 39%
    07:00 +28°C° 0 mm 3 m/S 757 mmHg 35%
    08:00 +29°C° 0 mm 3 m/S 757 mmHg 30%
    09:00 +31°C° 0 mm 3 m/S 757 mmHg 25%
    10:00 +33°C° 0 mm 3 m/S 756 mmHg 24%
    11:00 +34°C° 0 mm 2 m/S 756 mmHg 23%
    12:00 +35°C° 0 mm 2 m/S 756 mmHg 22%
    13:00 +36°C° 0 mm 2 m/S 756 mmHg 22%
    14:00 +35°C° 0 mm 1 m/S 756 mmHg 22%
    15:00 +35°C° 0 mm 1 m/S 756 mmHg 22%
    16:00 +36°C° 0 mm 2 m/S 757 mmHg 25%
    17:00 +35°C° 0 mm 2 m/S 757 mmHg 27%
    18:00 +34°C° 0 mm 2 m/S 757 mmHg 30%
    19:00 +33°C° 0 mm 3 m/S 758 mmHg 32%
    20:00 +30°C° 0 mm 3 m/S 758 mmHg 35%
    21:00 +28°C° 0 mm 4 m/S 759 mmHg 37%
    22:00 +27°C° 0 mm 3 m/S 759 mmHg 39%
    23:00 +27°C° 0 mm 3 m/S 760 mmHg 42%
    Mehr zeigen